Zurück zum Katalog

STARLINK-6192

AktivKommunikationVLEO
NORAD 56903·PAYLOAD·🇺🇸 United States

Gestartet Jun 12, 2023 von Cape Canaveral Space Force Station

Loading…

Nächste Überflüge (nächste 24 Stunden)

TLE

AktuellSource: CelesTrak SupGP

Epoche: Sep 14, 2026, 13:31 UTC

1 56903C 23083AD  26257.56368056  .00007949  00000+0  28791-3 0  2575
2 56903  43.0018  94.9181 0001427 256.9526 279.6978 15.27573409    14

Verfolge STARLINK-6192 in Echtzeit mit AllMySat

Download on the App Store